Location: Bonneuil
(46.1010°N, 2.9693°E)
Time: 03:54:10
(UTC+00:00)

Cosmos 2208 Rocket - Visible Passes

Search period start: 17 June 2021 00:00
Search period end: 27 June 2021 00:00
Orbit: 753 x 806 km, 74.0° (Epoch: 16 June)

Date Brightness Start Highest point End Pass type
(mag) Time Alt. Az. Time Alt. Az. Time Alt. Az.
17 Jun 5.7 01:14:24 13° SSE 01:17:59 25° E 01:22:22 10° NE visible
17 Jun 4.6 02:54:56 11° SW 02:59:59 50° WNW 03:05:18 10° NNE visible
18 Jun 6.2 00:41:39 10° SE 00:44:46 16° E 00:48:03 10° ENE visible
18 Jun 4.1 02:22:10 17° SSW 02:26:23 74° WNW 02:31:53 10° NNE visible
19 Jun 6.5 00:11:18 10° E 00:11:36 10° E 00:11:55 10° E visible
19 Jun 4.2 01:49:22 22° S 01:52:54 75° ESE 01:58:21 10° NNE visible
20 Jun 4.7 01:16:33 25° SSE 01:19:28 49° ESE 01:24:43 10° NNE visible
20 Jun 5.4 02:57:25 10° WSW 03:02:03 28° NW 03:06:43 10° N visible
21 Jun 5.3 00:43:42 22° SE 00:46:07 32° E 00:50:55 10° NE visible
21 Jun 4.9 02:24:13 15° SW 02:28:20 40° WNW 02:33:28 10° N visible
22 Jun 5.8 00:10:50 17° SE 00:12:51 21° E 00:16:51 10° NE visible
22 Jun 4.4 01:51:20 23° SW 01:54:42 59° WNW 02:00:07 10° NNE visible
22 Jun 6.2 23:37:55 12° ESE 23:39:39 14° E 23:42:14 10° ENE visible
23 Jun 4.1 01:18:26 31° SSW 01:21:08 87° WNW 01:26:39 10° NNE visible
23 Jun 6.1 03:00:56 10° W 03:04:19 16° NW 03:07:43 10° N visible
24 Jun 4.3 00:45:30 35° S 00:47:40 62° ESE 00:53:04 10° NNE visible
24 Jun 5.8 02:26:12 10° WSW 02:30:28 23° NW 02:34:46 10° N visible
25 Jun 4.8 00:12:32 32° SE 00:14:17 41° ESE 00:19:23 10° NE visible
25 Jun 5.3 01:53:03 16° WSW 01:56:42 32° WNW 02:01:36 10° N visible
25 Jun 5.3 23:39:33 24° ESE 23:40:58 27° E 23:45:28 10° NE visible
26 Jun 4.7 01:20:03 24° WSW 01:23:01 47° WNW 01:28:18 10° NNE visible
26 Jun 5.8 23:06:33 17° ESE 23:07:43 18° E 23:11:15 10° NE visible
